Regional Weather Roundup
Issued by NWS

Home | Current Version | Previous Version | Graphics & Text | Print | Product List | Glossary On
Versions: 1 2 3 4 5 6 7 8 9 10 11 12 13 14 15 16 17 18 19 20 21 22 23 24 25 26 27 28 29 30 31 32 33 34 35 36 37 38 39 40 41 42 43 44 45 46 47 48 49 50
363
ASUS45 KCYS 232210
RWRWY

WYOMING REGIONAL WEATHER ROUNDUP
NATIONAL WEATHER SERVICE CHEYENNE WY
400 PM MDT WED AUG 23 2017

NOTE:  "FAIR" INDICATES FEW OR NO CLOUDS BELOW 12,000 FEET
WITH NO SIGNIFICANT WEATHER AND/OR OBSTRUCTIONS TO VISIBILITY.

WYZ001-232300-
YELLOWSTONE NATIONAL PARK

CITY           SKY/WX    TMP DP  RH WIND       PRES   REMARKS
LK YELLOWSTONE   N/A     56  45  66 VRB7      30.34F
W YELLOWSTONE  NOT AVBL

$$
WYZ002>013-054>058-071-098>099-232300-
NORTHERN WYOMING

CITY           SKY/WX    TMP DP  RH WIND       PRES   REMARKS
JACKSON        CLOUDY    70  41  35 SE14      30.26S
CODY           FAIR      82  40  22 NE5       30.07F
GREYBULL       FAIR      94  23   8 SW7       29.95F
WORLAND        FAIR      93  31  11 N3        29.98F
SHERIDAN       FAIR      94  32  11 CALM      29.98F
BUFFALO        FAIR      91  26   9 VRB6      30.05F
GILLETTE       FAIR      92  29  10 E10G17    30.00F
HULETT         FAIR      90  37  15 NE6G17    30.03S
NEWCASTLE      FAIR      90  34  13 CALM      30.00F

$$
WYZ014>020-022>026-101>103-232300-
CENTRAL WYOMING

CITY           SKY/WX    TMP DP  RH WIND       PRES   REMARKS
BIG PINEY      CLOUDY    73  41  31 CALM      30.29F
PINEDALE       MOCLDY    70  37  30 NW9       30.31F
DUBOIS         CLOUDY    70  32  24 W20       30.25R
LANDER           N/A    N/A N/A N/A MISG      30.11F
RIVERTON       FAIR      86  27  11 SW6       30.09F
CASPER         FAIR      89  26  10 W13       30.08F
DOUGLAS        FAIR      79  41  25 SW17G26   30.07S

$$
WYZ021-027>030-104>119-232300-
SOUTHERN WYOMING

CITY           SKY/WX    TMP DP  RH WIND       PRES   REMARKS
EVANSTON       FAIR      70  44  39 E10       30.30F
KEMMERER         N/A     73  36  25 W10G17    30.30F
FORT BRIDGER   CLOUDY    68  45  42 E6        30.30F
ROCK SPRINGS   FAIR      73  38  27 VRB6      30.26F
DIXON          MOCLDY    80  38  21 W12       30.25S
RAWLINS        FAIR      76  37  24 W16       30.24F
SARATOGA       MOCLDY    77  36  22 W9G16     30.26F
LARAMIE        RAIN      59  49  69 SW20      30.29R
CHEYENNE       FAIR      80  43  26 S16       30.18F
TORRINGTON     FAIR      91  32  12 SE3       29.99F
PINE BLUFFS    TSTM      63  54  72 S17G44    30.15R VSB 3/4

$$




USA.gov is the U.S. government's official web portal to all federal, state and local government web resources and services.